TimeCST,TemperatureF,Dew PointF,Humidity,Sea Level PressureIn,VisibilityMPH,Wind Direction,Wind SpeedMPH,Gust SpeedMPH,PrecipitationIn,Events,Conditions,WindDirDegrees,DateUTC
12:53 AM,10.0,7.0,87,30.43,10.0,SE,5.8,-,N/A,,Clear,140,2013-01-15 06:53:00
1:53 AM,10.0,7.0,87,30.43,10.0,SE,6.9,-,N/A,,Clear,140,2013-01-15 07:53:00
2:53 AM,10.9,8.1,88,30.42,10.0,SSE,8.1,-,N/A,,Clear,150,2013-01-15 08:53:00
3:53 AM,12.9,9.0,84,30.40,10.0,South,8.1,-,N/A,,Clear,170,2013-01-15 09:53:00
6:53 AM,15.1,9.0,77,30.38,10.0,SSE,9.2,-,N/A,,Clear,160,2013-01-15 12:53:00
7:53 AM,15.1,8.1,74,30.38,10.0,SSE,8.1,-,N/A,,Clear,160,2013-01-15 13:53:00
8:53 AM,18.0,10.9,74,30.37,10.0,South,6.9,-,N/A,,Clear,180,2013-01-15 14:53:00
9:53 AM,19.9,10.9,68,30.36,10.0,South,8.1,-,N/A,,Clear,180,2013-01-15 15:53:00
10:53 AM,23.0,12.0,63,30.35,10.0,SSE,9.2,-,N/A,,Partly Cloudy,160,2013-01-15 16:53:00
11:53 AM,27.0,14.0,58,30.32,10.0,South,10.4,-,N/A,,Mostly Cloudy,180,2013-01-15 17:53:00
12:53 PM,30.0,14.0,51,30.28,10.0,SSW,10.4,-,N/A,,Clear,200,2013-01-15 18:53:00
1:53 PM,32.0,12.9,45,30.24,10.0,SW,9.2,-,N/A,,Clear,220,2013-01-15 19:53:00
2:53 PM,32.0,12.9,45,30.23,10.0,SSW,13.8,-,N/A,,Clear,210,2013-01-15 20:53:00
3:53 PM,30.9,14.0,50,30.22,10.0,SSW,13.8,23.0,N/A,,Clear,200,2013-01-15 21:53:00
4:53 PM,28.9,12.9,51,30.21,10.0,SSW,10.4,-,N/A,,Clear,200,2013-01-15 22:53:00
5:53 PM,27.0,12.9,56,30.20,10.0,South,9.2,-,N/A,,Clear,190,2013-01-15 23:53:00
6:53 PM,27.0,12.9,56,30.18,10.0,South,11.5,-,N/A,,Clear,190,2013-01-16 00:53:00
7:53 PM,26.1,12.9,58,30.16,10.0,South,12.7,-,N/A,,Clear,190,2013-01-16 01:53:00
8:53 PM,25.0,12.9,60,30.13,10.0,South,9.2,-,N/A,,Clear,190,2013-01-16 02:53:00
9:53 PM,25.0,12.0,58,30.09,10.0,South,9.2,-,N/A,,Clear,190,2013-01-16 03:53:00
10:53 PM,24.1,12.0,60,30.06,10.0,South,10.4,-,N/A,,Clear,190,2013-01-16 04:53:00
11:53 PM,23.0,12.0,63,30.02,10.0,South,9.2,-,N/A,,Clear,170,2013-01-16 05:53:00